Year,Month,Day,Hour,Minute,Value (Times are PST for temperature in C)
2020,08,30,00,00,13.30
2020,08,30,00,01,13.30
2020,08,30,00,02,13.30
2020,08,30,00,03,13.30
2020,08,30,00,04,13.20
2020,08,30,00,05,13.20
2020,08,30,00,06,13.10
2020,08,30,00,07,13.10
2020,08,30,00,08,13.10
2020,08,30,00,09,13.00
2020,08,30,00,10,13.00
2020,08,30,00,11,13.00
2020,08,30,00,12,12.90
2020,08,30,00,13,12.90
2020,08,30,00,14,12.90
2020,08,30,00,15,12.90
2020,08,30,00,16,12.90
2020,08,30,00,17,12.80
2020,08,30,00,18,12.80
2020,08,30,00,19,12.80
2020,08,30,00,20,12.80
2020,08,30,00,21,12.80
2020,08,30,00,22,12.70
2020,08,30,00,23,12.70
2020,08,30,00,24,12.70
2020,08,30,00,25,12.70
2020,08,30,00,26,12.70
2020,08,30,00,27,12.60
2020,08,30,00,28,12.60
2020,08,30,00,29,12.60
2020,08,30,00,30,12.60
2020,08,30,00,31,12.60
2020,08,30,00,32,12.50
2020,08,30,00,33,12.50
2020,08,30,00,34,12.50
2020,08,30,00,35,12.40
2020,08,30,00,36,12.40
2020,08,30,00,37,12.50
2020,08,30,00,38,12.50
2020,08,30,00,39,12.40
2020,08,30,00,40,12.40
2020,08,30,00,41,12.40
2020,08,30,00,42,12.40
2020,08,30,00,43,12.40
2020,08,30,00,44,12.30
2020,08,30,00,45,12.30
2020,08,30,00,46,12.30
2020,08,30,00,47,12.30
2020,08,30,00,48,12.30
2020,08,30,00,49,12.20
2020,08,30,00,50,12.20
2020,08,30,00,51,12.20
2020,08,30,00,52,12.20
2020,08,30,00,53,12.20
2020,08,30,00,54,12.20
2020,08,30,00,55,12.20
2020,08,30,00,56,12.20
2020,08,30,00,57,12.20
2020,08,30,00,58,12.20
2020,08,30,00,59,12.20
2020,08,30,01,00,12.10
2020,08,30,01,01,12.10
2020,08,30,01,02,12.20
2020,08,30,01,03,12.30
2020,08,30,01,04,12.40
2020,08,30,01,05,12.40
2020,08,30,01,06,12.40
2020,08,30,01,07,12.30
2020,08,30,01,08,12.30
2020,08,30,01,09,12.20
2020,08,30,01,10,12.20
2020,08,30,01,11,12.10
2020,08,30,01,12,12.10
2020,08,30,01,13,12.00
2020,08,30,01,14,12.00
2020,08,30,01,15,11.90
2020,08,30,01,16,12.00
2020,08,30,01,17,12.10
2020,08,30,01,18,12.20
2020,08,30,01,19,12.20
2020,08,30,01,20,12.20
2020,08,30,01,21,12.20
2020,08,30,01,22,12.30
2020,08,30,01,23,12.30
2020,08,30,01,24,12.30
2020,08,30,01,25,12.20
2020,08,30,01,26,12.20
2020,08,30,01,27,12.10
2020,08,30,01,28,12.00
2020,08,30,01,29,12.00
2020,08,30,01,30,11.90
2020,08,30,01,31,11.90
2020,08,30,01,32,11.80
2020,08,30,01,33,11.80
2020,08,30,01,34,11.70
2020,08,30,01,35,11.70
2020,08,30,01,36,11.60
2020,08,30,01,37,11.60
2020,08,30,01,38,11.50
2020,08,30,01,39,11.40
2020,08,30,01,40,11.40
2020,08,30,01,41,11.40
2020,08,30,01,42,11.40
2020,08,30,01,43,11.30
2020,08,30,01,44,11.30
2020,08,30,01,45,11.30
2020,08,30,01,46,11.30
2020,08,30,01,47,11.30
2020,08,30,01,48,11.30
2020,08,30,01,49,11.30
2020,08,30,01,50,11.30
2020,08,30,01,51,11.30
2020,08,30,01,52,11.30
2020,08,30,01,53,11.30
2020,08,30,01,54,11.30
2020,08,30,01,55,11.30
2020,08,30,01,56,11.30
2020,08,30,01,57,11.30
2020,08,30,01,58,11.30
2020,08,30,01,59,11.30
2020,08,30,02,00,11.20
2020,08,30,02,01,11.20
2020,08,30,02,02,11.20
2020,08,30,02,03,11.20
2020,08,30,02,04,11.20
2020,08,30,02,05,11.20
2020,08,30,02,06,11.30
2020,08,30,02,07,11.30
2020,08,30,02,08,11.40
2020,08,30,02,09,11.50
2020,08,30,02,10,11.60
2020,08,30,02,11,11.80
2020,08,30,02,12,11.80
2020,08,30,02,13,11.80
2020,08,30,02,14,11.80
2020,08,30,02,15,11.80
2020,08,30,02,16,11.70
2020,08,30,02,17,11.60
2020,08,30,02,18,11.50
2020,08,30,02,19,11.40
2020,08,30,02,20,11.40
2020,08,30,02,21,11.30
2020,08,30,02,22,11.20
2020,08,30,02,23,11.00
2020,08,30,02,24,10.90
2020,08,30,02,25,10.80
2020,08,30,02,26,10.70
2020,08,30,02,27,10.70
2020,08,30,02,28,10.60
2020,08,30,02,29,10.50
2020,08,30,02,30,10.50
2020,08,30,02,31,10.40
2020,08,30,02,32,10.40
2020,08,30,02,33,10.30
2020,08,30,02,34,10.30
2020,08,30,02,35,10.30
2020,08,30,02,36,10.30
2020,08,30,02,37,10.30
2020,08,30,02,38,10.20
2020,08,30,02,39,10.20
2020,08,30,02,40,10.20
2020,08,30,02,41,10.10
2020,08,30,02,42,10.10
2020,08,30,02,43,10.10
2020,08,30,02,44,10.00
2020,08,30,02,45,10.00
2020,08,30,02,46,9.90
2020,08,30,02,47,9.90
2020,08,30,02,48,9.90
2020,08,30,02,49,9.90
2020,08,30,02,50,9.80
2020,08,30,02,51,9.80
2020,08,30,02,52,9.80
2020,08,30,02,53,9.80
2020,08,30,02,54,9.80
2020,08,30,02,55,9.80
2020,08,30,02,56,9.70
2020,08,30,02,57,9.70
2020,08,30,02,58,9.70
2020,08,30,02,59,9.70
2020,08,30,03,00,9.70
2020,08,30,03,01,9.70
2020,08,30,03,02,9.70
2020,08,30,03,03,9.70
2020,08,30,03,04,9.70
2020,08,30,03,05,9.60
2020,08,30,03,06,9.60
2020,08,30,03,07,9.60
2020,08,30,03,08,9.60
2020,08,30,03,09,9.60
2020,08,30,03,10,9.60
2020,08,30,03,11,9.60
2020,08,30,03,12,9.50
2020,08,30,03,13,9.50
2020,08,30,03,14,9.50
2020,08,30,03,15,9.50
2020,08,30,03,16,9.50
2020,08,30,03,17,9.50
2020,08,30,03,18,9.50
2020,08,30,03,19,9.40
2020,08,30,03,20,9.40
2020,08,30,03,21,9.40
2020,08,30,03,22,9.40
2020,08,30,03,23,9.40
2020,08,30,03,24,9.40
2020,08,30,03,25,9.40
2020,08,30,03,26,9.40
2020,08,30,03,27,9.40
2020,08,30,03,28,9.40
2020,08,30,03,29,9.40
2020,08,30,03,30,9.40
2020,08,30,03,31,9.30
2020,08,30,03,32,9.30
2020,08,30,03,33,9.30
2020,08,30,03,34,9.30
2020,08,30,03,35,9.30
2020,08,30,03,36,9.30
2020,08,30,03,37,9.30
2020,08,30,03,38,9.20
2020,08,30,03,39,9.20
2020,08,30,03,40,9.20
2020,08,30,03,41,9.20
2020,08,30,03,42,9.20
2020,08,30,03,43,9.20
2020,08,30,03,44,9.20
2020,08,30,03,45,9.10
2020,08,30,03,46,9.10
2020,08,30,03,47,9.00
2020,08,30,03,48,9.00
2020,08,30,03,49,9.00
2020,08,30,03,50,9.00
2020,08,30,03,51,8.90
2020,08,30,03,52,8.90
2020,08,30,03,53,8.90
2020,08,30,03,54,8.90
2020,08,30,03,55,8.90
2020,08,30,03,56,8.90
2020,08,30,03,57,8.90
2020,08,30,03,58,8.90
2020,08,30,03,59,8.90
2020,08,30,04,00,8.90
2020,08,30,04,01,8.90
2020,08,30,04,02,8.90
2020,08,30,04,03,8.90
2020,08,30,04,04,8.90
2020,08,30,04,05,8.80
2020,08,30,04,06,8.80
2020,08,30,04,07,8.80
2020,08,30,04,08,8.80
2020,08,30,04,09,8.80
2020,08,30,04,10,8.80
2020,08,30,04,11,8.80
2020,08,30,04,12,8.80
2020,08,30,04,13,8.80
2020,08,30,04,14,8.70
2020,08,30,04,15,8.70
2020,08,30,04,16,8.70
2020,08,30,04,17,8.70
2020,08,30,04,18,8.70
2020,08,30,04,19,8.70
2020,08,30,04,20,8.70
2020,08,30,04,21,8.70
2020,08,30,04,22,8.70
2020,08,30,04,23,8.70
2020,08,30,04,24,8.70
2020,08,30,04,25,8.70
2020,08,30,04,26,8.60
2020,08,30,04,27,8.60
2020,08,30,04,28,8.60
2020,08,30,04,29,8.60
2020,08,30,04,30,8.60
2020,08,30,04,31,8.60
2020,08,30,04,32,8.60
2020,08,30,04,33,8.60
2020,08,30,04,34,8.60
2020,08,30,04,35,8.60
2020,08,30,04,36,8.60
2020,08,30,04,37,8.50
2020,08,30,04,38,8.50
2020,08,30,04,39,8.50
2020,08,30,04,40,8.50
2020,08,30,04,41,8.40
2020,08,30,04,42,8.40
2020,08,30,04,43,8.40
2020,08,30,04,44,8.40
2020,08,30,04,45,8.40
2020,08,30,04,46,8.40
2020,08,30,04,47,8.40
2020,08,30,04,48,8.40
2020,08,30,04,49,8.30
2020,08,30,04,50,8.30
2020,08,30,04,51,8.30
2020,08,30,04,52,8.30
2020,08,30,04,53,8.30
2020,08,30,04,54,8.30
2020,08,30,04,55,8.30
2020,08,30,04,56,8.30
2020,08,30,04,57,8.30
2020,08,30,04,58,8.30
2020,08,30,04,59,8.30
2020,08,30,05,00,8.30
2020,08,30,05,01,8.30
2020,08,30,05,02,8.30
2020,08,30,05,03,8.40
2020,08,30,05,04,8.40
2020,08,30,05,05,8.40
2020,08,30,05,06,8.40
2020,08,30,05,07,8.40
2020,08,30,05,08,8.40
2020,08,30,05,09,8.40
2020,08,30,05,10,8.40
2020,08,30,05,11,8.30
2020,08,30,05,12,8.30
2020,08,30,05,13,8.30
2020,08,30,05,14,8.30
2020,08,30,05,15,8.20
2020,08,30,05,16,8.20
2020,08,30,05,17,8.20
2020,08,30,05,18,8.20
2020,08,30,05,19,8.20
2020,08,30,05,20,8.20
2020,08,30,05,21,8.20
2020,08,30,05,22,8.20
2020,08,30,05,23,8.20
2020,08,30,05,24,8.20
2020,08,30,05,25,8.20
2020,08,30,05,26,8.20
2020,08,30,05,27,8.30
2020,08,30,05,28,8.30
2020,08,30,05,29,8.30
2020,08,30,05,30,8.30
2020,08,30,05,31,8.30
2020,08,30,05,32,8.20
2020,08,30,05,33,8.20
2020,08,30,05,34,8.20
2020,08,30,05,35,8.20
2020,08,30,05,36,8.20
2020,08,30,05,37,8.20
2020,08,30,05,38,8.20
2020,08,30,05,39,8.20
2020,08,30,05,40,8.20
2020,08,30,05,41,8.20
2020,08,30,05,42,8.20
2020,08,30,05,43,8.10
2020,08,30,05,44,8.10
2020,08,30,05,45,8.10
2020,08,30,05,46,8.10
2020,08,30,05,47,8.10
2020,08,30,05,48,8.10
2020,08,30,05,49,8.10
2020,08,30,05,50,8.10
2020,08,30,05,51,8.10
2020,08,30,05,52,8.10
2020,08,30,05,53,8.00
2020,08,30,05,54,8.00
2020,08,30,05,55,8.00
2020,08,30,05,56,8.00
2020,08,30,05,57,7.90
2020,08,30,05,58,7.90
2020,08,30,05,59,7.90
2020,08,30,06,00,7.90
2020,08,30,06,01,7.80
2020,08,30,06,02,7.80
2020,08,30,06,03,7.80
2020,08,30,06,04,7.80
2020,08,30,06,05,7.80
2020,08,30,06,06,7.80
2020,08,30,06,07,7.80
2020,08,30,06,08,7.80
2020,08,30,06,09,7.80
2020,08,30,06,10,7.80
2020,08,30,06,11,7.80
2020,08,30,06,12,7.80
2020,08,30,06,13,7.80
2020,08,30,06,14,7.80
2020,08,30,06,15,7.80
2020,08,30,06,16,7.80
2020,08,30,06,17,7.80
2020,08,30,06,18,7.80
2020,08,30,06,19,7.80
2020,08,30,06,20,7.80
2020,08,30,06,21,7.80
2020,08,30,06,22,7.80
2020,08,30,06,23,7.80
2020,08,30,06,24,7.80
2020,08,30,06,25,7.80
2020,08,30,06,26,7.80
2020,08,30,06,27,7.90
2020,08,30,06,28,7.90
2020,08,30,06,29,7.90
2020,08,30,06,30,7.90
2020,08,30,06,31,7.90
2020,08,30,06,32,7.90
2020,08,30,06,33,7.90
2020,08,30,06,34,7.80
2020,08,30,06,35,7.80
2020,08,30,06,36,7.80
2020,08,30,06,37,7.80
2020,08,30,06,38,7.80
2020,08,30,06,39,7.80
2020,08,30,06,40,7.80
2020,08,30,06,41,7.80
2020,08,30,06,42,7.80
2020,08,30,06,43,7.80
2020,08,30,06,44,7.80
2020,08,30,06,45,7.80
2020,08,30,06,46,7.80
2020,08,30,06,47,7.80
2020,08,30,06,48,7.80
2020,08,30,06,49,7.80
2020,08,30,06,50,7.80
2020,08,30,06,51,7.80
2020,08,30,06,52,7.80
2020,08,30,06,53,7.80
2020,08,30,06,54,7.80
2020,08,30,06,55,7.80
2020,08,30,06,56,7.80
2020,08,30,06,57,7.80
2020,08,30,06,58,7.80
2020,08,30,06,59,7.80
2020,08,30,07,00,7.80
2020,08,30,07,01,7.80
2020,08,30,07,02,7.80
2020,08,30,07,03,7.80
2020,08,30,07,04,7.80
2020,08,30,07,05,7.80
2020,08,30,07,06,7.80
2020,08,30,07,07,7.80
2020,08,30,07,08,7.80
2020,08,30,07,09,7.80
2020,08,30,07,10,7.80
2020,08,30,07,11,7.90
2020,08,30,07,12,7.90
2020,08,30,07,13,7.90
2020,08,30,07,14,7.90
2020,08,30,07,15,7.90
2020,08,30,07,16,7.90
2020,08,30,07,17,7.90
2020,08,30,07,18,8.00
2020,08,30,07,19,8.00
2020,08,30,07,20,8.00
2020,08,30,07,21,8.10
2020,08,30,07,22,8.10
2020,08,30,07,23,8.10
2020,08,30,07,24,8.20
2020,08,30,07,25,8.20
2020,08,30,07,26,8.30
2020,08,30,07,27,8.30
2020,08,30,07,28,8.40
2020,08,30,07,29,8.40
2020,08,30,07,30,8.50
2020,08,30,07,31,8.50
2020,08,30,07,32,8.60
2020,08,30,07,33,8.70
2020,08,30,07,34,8.70
2020,08,30,07,35,8.80
2020,08,30,07,36,8.90
2020,08,30,07,37,9.00
2020,08,30,07,38,9.00
2020,08,30,07,39,9.10
2020,08,30,07,40,9.20
2020,08,30,07,41,9.20
2020,08,30,07,42,9.30
2020,08,30,07,43,9.30
2020,08,30,07,44,9.30
2020,08,30,07,45,9.30
2020,08,30,07,46,9.30
2020,08,30,07,47,9.30
2020,08,30,07,48,9.30
2020,08,30,07,49,9.40
2020,08,30,07,50,9.40
2020,08,30,07,51,9.40
2020,08,30,07,52,9.40
2020,08,30,07,53,9.50
2020,08,30,07,54,9.50
2020,08,30,07,55,9.60
2020,08,30,07,56,9.60
2020,08,30,07,57,9.60
2020,08,30,07,58,9.70
2020,08,30,07,59,9.70
2020,08,30,08,00,9.70
2020,08,30,08,01,9.80
2020,08,30,08,02,9.80
2020,08,30,08,03,9.90
2020,08,30,08,04,9.90
2020,08,30,08,05,10.00
2020,08,30,08,06,10.00
2020,08,30,08,07,10.10
2020,08,30,08,08,10.20
2020,08,30,08,09,10.20
2020,08,30,08,10,10.30
2020,08,30,08,11,10.30
2020,08,30,08,12,10.40
2020,08,30,08,13,10.50
2020,08,30,08,14,10.50
2020,08,30,08,15,10.60
2020,08,30,08,16,10.70
2020,08,30,08,17,10.80
2020,08,30,08,18,10.80
2020,08,30,08,19,10.90
2020,08,30,08,20,11.00
2020,08,30,08,21,11.10
2020,08,30,08,22,11.10
2020,08,30,08,23,11.20
2020,08,30,08,24,11.20
2020,08,30,08,25,11.30
2020,08,30,08,26,11.30
2020,08,30,08,27,11.40
2020,08,30,08,28,11.40
2020,08,30,08,29,11.50
2020,08,30,08,30,11.50
2020,08,30,08,31,11.50
2020,08,30,08,32,11.60
2020,08,30,08,33,11.70
2020,08,30,08,34,11.70
2020,08,30,08,35,11.80
2020,08,30,08,36,11.90
2020,08,30,08,37,11.90
2020,08,30,08,38,11.90
2020,08,30,08,39,12.00
2020,08,30,08,40,12.10
2020,08,30,08,41,12.10
2020,08,30,08,42,12.20
2020,08,30,08,43,12.20
2020,08,30,08,44,12.30
2020,08,30,08,45,12.40
2020,08,30,08,46,12.50
2020,08,30,08,47,12.60
2020,08,30,08,48,12.70
2020,08,30,08,49,12.80
2020,08,30,08,50,12.90
2020,08,30,08,51,13.00
2020,08,30,08,52,13.10
2020,08,30,08,53,13.20
2020,08,30,08,54,13.30
2020,08,30,08,55,13.40
2020,08,30,08,56,13.50
2020,08,30,08,57,13.70
2020,08,30,08,58,13.80
2020,08,30,08,59,13.90
2020,08,30,09,00,14.00
2020,08,30,09,01,14.10
2020,08,30,09,02,14.20
2020,08,30,09,03,14.30
2020,08,30,09,04,14.40
2020,08,30,09,05,14.50
2020,08,30,09,06,14.60
2020,08,30,09,07,14.70
2020,08,30,09,08,14.70
2020,08,30,09,09,14.80
2020,08,30,09,10,14.80
2020,08,30,09,11,14.90
2020,08,30,09,12,14.90
2020,08,30,09,13,15.00
2020,08,30,09,14,15.00
2020,08,30,09,15,15.10
2020,08,30,09,16,15.10
2020,08,30,09,17,15.10
2020,08,30,09,18,15.10
2020,08,30,09,19,15.10
2020,08,30,09,20,15.00
2020,08,30,09,21,15.00
2020,08,30,09,22,15.00
2020,08,30,09,23,15.00
2020,08,30,09,24,15.00
2020,08,30,09,25,15.10
2020,08,30,09,26,15.10
2020,08,30,09,27,15.20
2020,08,30,09,28,15.30
2020,08,30,09,29,15.40
2020,08,30,09,30,15.40
2020,08,30,09,31,15.50
2020,08,30,09,32,15.60
2020,08,30,09,33,15.60
2020,08,30,09,34,15.70
2020,08,30,09,35,15.70
2020,08,30,09,36,15.80
2020,08,30,09,37,15.80
2020,08,30,09,38,15.80
2020,08,30,09,39,15.80
2020,08,30,09,40,15.80
2020,08,30,09,41,15.80
2020,08,30,09,42,15.80
2020,08,30,09,43,15.80
2020,08,30,09,44,15.80
2020,08,30,09,45,15.80
2020,08,30,09,46,15.80
2020,08,30,09,47,15.80
2020,08,30,09,48,15.90
2020,08,30,09,49,15.90
2020,08,30,09,50,15.90
2020,08,30,09,51,15.90
2020,08,30,09,52,15.90
2020,08,30,09,53,15.90
2020,08,30,09,54,15.80
2020,08,30,09,55,15.80
2020,08,30,09,56,15.80
2020,08,30,09,57,15.80
2020,08,30,09,58,15.70
2020,08,30,09,59,15.70
2020,08,30,10,00,15.70
2020,08,30,10,01,15.70
2020,08,30,10,02,15.70
2020,08,30,10,03,15.70
2020,08,30,10,04,15.60
2020,08,30,10,05,15.60
2020,08,30,10,06,15.60
2020,08,30,10,07,15.60
2020,08,30,10,08,15.60
2020,08,30,10,09,15.70
2020,08,30,10,10,15.70
2020,08,30,10,11,15.70
2020,08,30,10,12,15.70
2020,08,30,10,13,15.70
2020,08,30,10,14,15.70
2020,08,30,10,15,15.80
2020,08,30,10,16,15.80
2020,08,30,10,17,15.90
2020,08,30,10,18,15.90
2020,08,30,10,19,16.00
2020,08,30,10,20,16.00
2020,08,30,10,21,16.00
2020,08,30,10,22,16.10
2020,08,30,10,23,16.10
2020,08,30,10,24,16.20
2020,08,30,10,25,16.20
2020,08,30,10,26,16.20
2020,08,30,10,27,16.20
2020,08,30,10,28,16.30
2020,08,30,10,29,16.40
2020,08,30,10,30,16.50
2020,08,30,10,31,16.60
2020,08,30,10,32,16.70
2020,08,30,10,33,16.80
2020,08,30,10,34,16.80
2020,08,30,10,35,16.90
2020,08,30,10,36,16.90
2020,08,30,10,37,17.00
2020,08,30,10,38,17.10
2020,08,30,10,39,17.10
2020,08,30,10,40,17.10
2020,08,30,10,41,17.10
2020,08,30,10,42,17.10
2020,08,30,10,43,17.10
2020,08,30,10,44,17.20
2020,08,30,10,45,17.10
2020,08,30,10,46,17.10
2020,08,30,10,47,17.10
2020,08,30,10,48,17.10
2020,08,30,10,49,17.00
2020,08,30,10,50,17.00
2020,08,30,10,51,16.90
2020,08,30,10,52,16.90
2020,08,30,10,53,16.90
2020,08,30,10,54,16.80
2020,08,30,10,55,16.80
2020,08,30,10,56,16.80
2020,08,30,10,57,16.70
2020,08,30,10,58,16.70
2020,08,30,10,59,16.70
2020,08,30,11,00,16.70
2020,08,30,11,01,16.80
2020,08,30,11,02,16.80
2020,08,30,11,03,16.90
2020,08,30,11,04,16.90
2020,08,30,11,05,17.00
2020,08,30,11,06,17.00
2020,08,30,11,07,17.00
2020,08,30,11,08,17.00
2020,08,30,11,09,16.90
2020,08,30,11,10,16.90
2020,08,30,11,11,17.00
2020,08,30,11,12,17.00
2020,08,30,11,13,16.90
2020,08,30,11,14,16.90
2020,08,30,11,15,16.80
2020,08,30,11,16,16.80
2020,08,30,11,17,16.70
2020,08,30,11,18,16.70
2020,08,30,11,19,16.70
2020,08,30,11,20,16.70
2020,08,30,11,21,16.80
2020,08,30,11,22,16.80
2020,08,30,11,23,16.80
2020,08,30,11,24,16.90
2020,08,30,11,25,17.00
2020,08,30,11,26,17.00
2020,08,30,11,27,17.10
2020,08,30,11,28,17.10
2020,08,30,11,29,17.10
2020,08,30,11,30,17.20
2020,08,30,11,31,17.10
2020,08,30,11,32,17.10
2020,08,30,11,33,17.10
2020,08,30,11,34,17.00
2020,08,30,11,35,17.00
2020,08,30,11,36,17.00
2020,08,30,11,37,17.00
2020,08,30,11,38,17.00
2020,08,30,11,39,17.00
2020,08,30,11,40,17.00
2020,08,30,11,41,17.00
2020,08,30,11,42,16.90
2020,08,30,11,43,17.00
2020,08,30,11,44,17.00
2020,08,30,11,45,17.00
2020,08,30,11,46,17.10
2020,08,30,11,47,17.10
2020,08,30,11,48,17.10
2020,08,30,11,49,17.10
2020,08,30,11,50,17.00
2020,08,30,11,51,17.00
2020,08,30,11,52,17.00
2020,08,30,11,53,17.00
2020,08,30,11,54,17.00
2020,08,30,11,55,16.90
2020,08,30,11,56,16.90
2020,08,30,11,57,16.90
2020,08,30,11,58,16.90
2020,08,30,11,59,17.00
2020,08,30,12,00,17.10
2020,08,30,12,01,17.10
2020,08,30,12,02,17.10
2020,08,30,12,03,17.10
2020,08,30,12,04,17.10
2020,08,30,12,05,17.10
2020,08,30,12,06,17.10
2020,08,30,12,07,17.10
2020,08,30,12,08,17.20
2020,08,30,12,09,17.20
2020,08,30,12,10,17.10
2020,08,30,12,11,17.10
2020,08,30,12,12,17.00
2020,08,30,12,13,17.00
2020,08,30,12,14,17.00
2020,08,30,12,15,17.00
2020,08,30,12,16,17.00
2020,08,30,12,17,17.10
2020,08,30,12,18,17.10
2020,08,30,12,19,17.20
2020,08,30,12,20,17.20
2020,08,30,12,21,17.20
2020,08,30,12,22,17.30
2020,08,30,12,23,17.30
2020,08,30,12,24,17.30
2020,08,30,12,25,17.30
2020,08,30,12,26,17.30
2020,08,30,12,27,17.30
2020,08,30,12,28,17.30
2020,08,30,12,29,17.30
2020,08,30,12,30,17.30
2020,08,30,12,31,17.40
2020,08,30,12,32,17.40
2020,08,30,12,33,17.50
2020,08,30,12,34,17.60
2020,08,30,12,35,17.60
2020,08,30,12,36,17.50
2020,08,30,12,37,17.50
2020,08,30,12,38,17.50
2020,08,30,12,39,17.40
2020,08,30,12,40,17.40
2020,08,30,12,41,17.40
2020,08,30,12,42,17.40
2020,08,30,12,43,17.40
2020,08,30,12,44,17.40
2020,08,30,12,45,17.50
2020,08,30,12,46,17.50
2020,08,30,12,47,17.60
2020,08,30,12,48,17.60
2020,08,30,12,49,17.60
2020,08,30,12,50,17.70
2020,08,30,12,51,17.70
2020,08,30,12,52,17.60
2020,08,30,12,53,17.60
2020,08,30,12,54,17.60
2020,08,30,12,55,17.60
2020,08,30,12,56,17.60
2020,08,30,12,57,17.60
2020,08,30,12,58,17.50
2020,08,30,12,59,17.50
2020,08,30,13,00,17.40
2020,08,30,13,01,17.40
2020,08,30,13,02,17.40
2020,08,30,13,03,17.40
2020,08,30,13,04,17.30
2020,08,30,13,05,17.30
2020,08,30,13,06,17.30
2020,08,30,13,07,17.30
2020,08,30,13,08,17.40
2020,08,30,13,09,17.40
2020,08,30,13,10,17.40
2020,08,30,13,11,17.40
2020,08,30,13,12,17.40
2020,08,30,13,13,17.40
2020,08,30,13,14,17.50
2020,08,30,13,15,17.50
2020,08,30,13,16,17.60
2020,08,30,13,17,17.60
2020,08,30,13,18,17.50
2020,08,30,13,19,17.50
2020,08,30,13,20,17.40
2020,08,30,13,21,17.40
2020,08,30,13,22,17.30
2020,08,30,13,23,17.30
2020,08,30,13,24,17.30
2020,08,30,13,25,17.30
2020,08,30,13,26,17.30
2020,08,30,13,27,17.30
2020,08,30,13,28,17.30
2020,08,30,13,29,17.30
2020,08,30,13,30,17.30
2020,08,30,13,31,17.30
2020,08,30,13,32,17.40
2020,08,30,13,33,17.40
2020,08,30,13,34,17.40
2020,08,30,13,35,17.40
2020,08,30,13,36,17.30
2020,08,30,13,37,17.30
2020,08,30,13,38,17.30
2020,08,30,13,39,17.30
2020,08,30,13,40,17.30
2020,08,30,13,41,17.40
2020,08,30,13,42,17.40
2020,08,30,13,43,17.40
2020,08,30,13,44,17.30
2020,08,30,13,45,17.30
2020,08,30,13,46,17.30
2020,08,30,13,47,17.20
2020,08,30,13,48,17.20
2020,08,30,13,49,17.20
2020,08,30,13,50,17.20
2020,08,30,13,51,17.20
2020,08,30,13,52,17.10
2020,08,30,13,53,17.10
2020,08,30,13,54,17.10
2020,08,30,13,55,17.10
2020,08,30,13,56,17.10
2020,08,30,13,57,17.00
2020,08,30,13,58,17.00
2020,08,30,13,59,16.90
2020,08,30,14,00,16.90
2020,08,30,14,01,16.90
2020,08,30,14,02,16.90
2020,08,30,14,03,17.00
2020,08,30,14,04,16.90
2020,08,30,14,05,16.90
2020,08,30,14,06,16.90
2020,08,30,14,07,16.90
2020,08,30,14,08,16.90
2020,08,30,14,09,16.90
2020,08,30,14,10,16.90
2020,08,30,14,11,16.90
2020,08,30,14,12,16.90
2020,08,30,14,13,16.90
2020,08,30,14,14,16.80
2020,08,30,14,15,16.80
2020,08,30,14,16,16.90
2020,08,30,14,17,16.90
2020,08,30,14,18,16.90
2020,08,30,14,19,16.90
2020,08,30,14,20,16.80
2020,08,30,14,21,16.80
2020,08,30,14,22,16.80
2020,08,30,14,23,16.80
2020,08,30,14,24,16.80
2020,08,30,14,25,16.80
2020,08,30,14,26,16.80
2020,08,30,14,27,16.70
2020,08,30,14,28,16.60
2020,08,30,14,29,16.60
2020,08,30,14,30,16.60
2020,08,30,14,31,16.60
2020,08,30,14,32,16.50
2020,08,30,14,33,16.50
2020,08,30,14,34,16.50
2020,08,30,14,35,16.40
2020,08,30,14,36,16.40
2020,08,30,14,37,16.30
2020,08,30,14,38,16.20
2020,08,30,14,39,16.20
2020,08,30,14,40,16.10
2020,08,30,14,41,16.10
2020,08,30,14,42,16.10
2020,08,30,14,43,16.10
2020,08,30,14,44,16.00
2020,08,30,14,45,16.00
2020,08,30,14,46,15.90
2020,08,30,14,47,15.90
2020,08,30,14,48,15.80
2020,08,30,14,49,15.80
2020,08,30,14,50,15.80
2020,08,30,14,51,15.80
2020,08,30,14,52,15.80
2020,08,30,14,53,15.70
2020,08,30,14,54,15.80
2020,08,30,14,55,15.80
2020,08,30,14,56,15.70
2020,08,30,14,57,15.70
2020,08,30,14,58,15.70
2020,08,30,14,59,15.70
2020,08,30,15,00,15.70
2020,08,30,15,01,15.70
2020,08,30,15,02,15.60
2020,08,30,15,03,15.60
2020,08,30,15,04,15.60
2020,08,30,15,05,15.60
2020,08,30,15,06,15.60
2020,08,30,15,07,15.60
2020,08,30,15,08,15.60
2020,08,30,15,09,15.60
2020,08,30,15,10,15.60
2020,08,30,15,11,15.60
2020,08,30,15,12,15.60
2020,08,30,15,13,15.60
2020,08,30,15,14,15.60
2020,08,30,15,15,15.60
2020,08,30,15,16,15.60
2020,08,30,15,17,15.50
2020,08,30,15,18,15.50
2020,08,30,15,19,15.50
2020,08,30,15,20,15.40
2020,08,30,15,21,15.40
2020,08,30,15,22,15.40
2020,08,30,15,23,15.40
2020,08,30,15,24,15.40
2020,08,30,15,25,15.40
2020,08,30,15,26,15.40
2020,08,30,15,27,15.30
2020,08,30,15,28,15.30
2020,08,30,15,29,15.30
2020,08,30,15,30,15.30
2020,08,30,15,31,15.30
2020,08,30,15,32,15.30
2020,08,30,15,33,15.30
2020,08,30,15,34,15.30
2020,08,30,15,35,15.30
2020,08,30,15,36,15.20
2020,08,30,15,37,15.20
2020,08,30,15,38,15.20
2020,08,30,15,39,15.10
2020,08,30,15,40,15.10
2020,08,30,15,41,15.10
2020,08,30,15,42,15.10
2020,08,30,15,43,15.10
2020,08,30,15,44,15.00
2020,08,30,15,45,15.00
2020,08,30,15,46,15.00
2020,08,30,15,47,14.90
2020,08,30,15,48,14.90
2020,08,30,15,49,14.90
2020,08,30,15,50,14.90
2020,08,30,15,51,14.90
2020,08,30,15,52,14.90
2020,08,30,15,53,14.80
2020,08,30,15,54,14.80
2020,08,30,15,55,14.80
2020,08,30,15,56,14.80
2020,08,30,15,57,14.70
2020,08,30,15,58,14.70
2020,08,30,15,59,14.70
2020,08,30,16,00,14.70
2020,08,30,16,01,14.70
2020,08,30,16,02,14.80
2020,08,30,16,03,14.80
2020,08,30,16,04,14.80
2020,08,30,16,05,14.80
2020,08,30,16,06,14.70
2020,08,30,16,07,14.70
2020,08,30,16,08,14.80
2020,08,30,16,09,14.80
2020,08,30,16,10,14.70
2020,08,30,16,11,14.70
2020,08,30,16,12,14.70
2020,08,30,16,13,14.70
2020,08,30,16,14,14.70
2020,08,30,16,15,14.70
2020,08,30,16,16,14.60
2020,08,30,16,17,14.60
2020,08,30,16,18,14.60
2020,08,30,16,19,14.60
2020,08,30,16,20,14.60
2020,08,30,16,21,14.60
2020,08,30,16,22,14.60
2020,08,30,16,23,14.60
2020,08,30,16,24,14.60
2020,08,30,16,25,14.50
2020,08,30,16,26,14.50
2020,08,30,16,27,14.40
2020,08,30,16,28,14.40
2020,08,30,16,29,14.40
2020,08,30,16,30,14.40
2020,08,30,16,31,14.40
2020,08,30,16,32,14.40
2020,08,30,16,33,14.30
2020,08,30,16,34,14.30
2020,08,30,16,35,14.30
2020,08,30,16,36,14.30
2020,08,30,16,37,14.30
2020,08,30,16,38,14.20
2020,08,30,16,39,14.20
2020,08,30,16,40,14.20
2020,08,30,16,41,14.20
2020,08,30,16,42,14.20
2020,08,30,16,43,14.20
2020,08,30,16,44,14.20
2020,08,30,16,45,14.20
2020,08,30,16,46,14.20
2020,08,30,16,47,14.20
2020,08,30,16,48,14.20
2020,08,30,16,49,14.20
2020,08,30,16,50,14.20
2020,08,30,16,51,14.10
2020,08,30,16,52,14.10
2020,08,30,16,53,14.10
2020,08,30,16,54,14.10
2020,08,30,16,55,14.10
2020,08,30,16,56,14.10
2020,08,30,16,57,14.10
2020,08,30,16,58,14.10
2020,08,30,16,59,14.10
2020,08,30,17,00,14.10
2020,08,30,17,01,14.10
2020,08,30,17,02,14.10
2020,08,30,17,03,14.10
2020,08,30,17,04,14.10
2020,08,30,17,05,14.10
2020,08,30,17,06,14.10
2020,08,30,17,07,14.10
2020,08,30,17,08,14.10
2020,08,30,17,09,14.10
2020,08,30,17,10,14.10
2020,08,30,17,11,14.10
2020,08,30,17,12,14.10
2020,08,30,17,13,14.10
2020,08,30,17,14,14.10
2020,08,30,17,15,14.10
2020,08,30,17,16,14.10
2020,08,30,17,17,14.00
2020,08,30,17,18,14.00
2020,08,30,17,19,14.00
2020,08,30,17,20,14.00
2020,08,30,17,21,13.90
2020,08,30,17,22,13.90
2020,08,30,17,23,13.80
2020,08,30,17,24,13.80
2020,08,30,17,25,13.80
2020,08,30,17,26,13.80
2020,08,30,17,27,13.80
2020,08,30,17,28,13.80
2020,08,30,17,29,13.70
2020,08,30,17,30,13.70
2020,08,30,17,31,13.70
2020,08,30,17,32,13.80
2020,08,30,17,33,13.80